CST,Max TemperatureF,Mean TemperatureF,Min TemperatureF,Max Dew PointF,MeanDew PointF,Min DewpointF,Max Humidity, Mean Humidity, Min Humidity, Max Sea Level PressureIn, Mean Sea Level PressureIn, Min Sea Level PressureIn, Max VisibilityMiles, Mean VisibilityMiles, Min VisibilityMiles, Max Wind SpeedMPH, Mean Wind SpeedMPH, Max Gust SpeedMPH,PrecipitationIn, CloudCover, Events, WindDirDegrees
2011-12-1,62,45,28,36,31,25,92,62,32,30.35,30.30,30.21,10,10,10,9,3,14,0.00,0,,31
2011-12-2,68,52,35,47,40,33,93,69,45,30.43,30.38,30.34,10,10,10,9,3,13,0.00,1,,70
2011-12-3,72,59,45,56,48,36,84,70,56,30.38,30.32,30.26,10,10,10,21,10,26,0.00,2,,94
2011-12-4,73,66,58,61,58,53,90,77,64,30.25,30.19,30.11,10,9,6,22,12,29,T,6,Rain,115
2011-12-5,73,67,61,67,64,58,93,86,79,30.09,30.02,29.99,10,6,0,23,9,31,0.10,7,Fog-Rain,151
2011-12-6,68,58,48,66,58,46,100,89,78,30.10,30.05,30.00,9,4,0,14,6,17,0.02,8,Fog-Rain,301
2011-12-7,49,44,39,45,35,30,96,75,54,30.33,30.18,30.05,10,7,5,22,12,30,0.09,7,Rain,308
2011-12-8,54,42,30,36,31,28,96,67,38,30.38,30.30,30.24,10,10,7,17,5,22,0.00,4,,351
2011-12-9,54,42,30,38,34,29,92,69,46,30.34,30.28,30.23,10,10,4,12,4,15,0.00,5,,355
2011-12-10,58,49,39,33,30,27,73,54,35,30.43,30.37,30.34,10,10,10,24,11,30,0.00,2,,3
2011-12-11,48,42,36,38,32,26,70,64,57,30.43,30.35,30.29,10,9,7,20,8,22,0.00,6,,18
2011-12-12,61,54,47,50,46,38,86,75,64,30.38,30.33,30.30,10,10,10,12,7,14,T,8,,47
2011-12-13,60,55,50,54,51,48,100,90,80,30.43,30.37,30.32,7,3,0,9,5,12,0.01,8,Fog,25
2011-12-14,72,61,49,61,57,48,100,84,68,30.31,30.26,30.20,10,6,0,17,8,23,0.00,6,Fog,114
2011-12-15,76,67,58,63,61,57,100,82,64,30.22,30.18,30.13,10,7,1,15,8,20,0.00,5,,128
2011-12-16,77,66,54,63,59,54,100,79,58,30.26,30.18,30.14,10,5,0,16,5,21,T,6,Fog,155
2011-12-17,60,50,39,54,43,32,93,68,42,30.39,30.31,30.24,10,9,7,16,8,20,T,5,,352
2011-12-18,61,48,34,34,30,27,85,56,27,30.42,30.35,30.30,10,10,10,15,5,18,0.00,1,,15
2011-12-19,69,51,33,61,49,30,97,76,55,30.26,30.16,30.06,10,8,3,15,7,20,0.00,5,,106
2011-12-20,71,66,61,68,64,60,100,91,81,30.08,30.00,29.96,10,6,2,15,7,18,0.05,7,Rain,145
2011-12-21,78,71,64,68,66,63,100,82,64,30.01,29.97,29.93,10,3,0,13,6,20,0.16,7,Fog-Rain,177
2011-12-22,76,65,53,70,64,50,100,90,79,30.14,29.97,29.88,10,5,0,29,10,43,0.77,7,Fog-Rain,188
2011-12-23,57,53,48,50,46,42,89,80,71,30.32,30.24,30.14,10,9,7,18,12,24,0.00,7,,6
2011-12-24,63,55,46,45,43,41,82,65,48,30.40,30.33,30.27,10,9,7,16,9,21,0.00,5,,21
2011-12-25,62,57,52,55,51,43,93,80,66,30.30,30.26,30.23,10,6,2,15,8,18,0.55,8,Rain,30
2011-12-26,69,62,55,67,58,53,100,92,84,30.23,30.09,29.94,10,5,3,20,11,29,0.12,8,Rain,109
2011-12-27,60,50,39,54,42,38,93,73,53,30.19,30.06,29.97,10,10,10,21,7,30,0.01,3,Rain,280
2011-12-28,59,46,33,41,37,32,100,70,40,30.23,30.17,30.12,10,10,3,9,4,13,0.00,3,Fog,209
2011-12-29,69,54,38,49,43,36,92,67,42,30.14,30.07,30.01,10,10,10,10,3,14,0.00,2,,170
2011-12-30,74,61,47,58,52,46,100,75,49,30.09,30.04,30.00,10,6,0,22,7,26,0.00,3,Fog,192
2011-12-31,73,62,51,57,55,50,100,77,53,30.20,30.14,30.05,10,4,0,13,4,15,0.00,3,Fog,200